QPF
0.00 0.00 0.00 0.00 0.00 0.00 0.00 0.00 0.00 0.00 0.00 0.00 0.00 0.00 0.00 0.00 0.00 0.00 0.00 0.00 0.00 0.00
0.00 0.00 0.00 0.00 0.00 0.00 0.00 0.00 0.00 0.00 0.00 0.00 0.00 0.00 0.00 0.00 0.00 0.00 0.00 0.00 0.00 0.00
0.00 0.00 0.00 0.00 0.00 0.00 0.00 0.00 0.00 0.00 0.00 0.00 0.00 0.00 0.00 0.00 0.00 0.00 0.00 0.00 0.00 0.00
0.00 0.00 0.00 0.00 0.00 0.00 0.00 0.00 0.00 0.00 0.00 0.00 0.00 0.00 0.00 0.00 0.00 0.00 0.00 0.00 0.00 0.00
0.00 0.00 0.00 0.00 0.00 0.00 0.00 0.00 0.00 0.00 0.00 0.00 0.00 0.00 0.00 0.00 0.00 0.00 0.00 0.00 0.00 0.00
0.00 0.00 0.00 0.00 0.00 0.00 0.00 0.00 0.00 0.00 0.00 0.00 0.00 0.00 0.00 0.00 0.00 0.00 0.00 0.00 0.00 0.00
0.00 0.00 0.00 0.00 0.00 0.00 0.00 0.00 0.00 0.00 0.00 0.00 0.00 0.00 0.00 0.00 0.00 0.00 0.00 0.00 0.00 0.00
0.00 0.00 0.00 0.00 0.00 0.00 0.00 0.00 0.00 0.00 0.00 0.00 0.00 0.00 0.00 0.00 0.00 0.00 0.00 0.00 0.00 0.00
0.00 0.00 0.00 0.00 0.00 0.00 0.00 0.00 0.00 0.00 0.00 0.00 0.00 0.00 0.00 0.00 0.00 0.00 0.00 0.00 0.00 0.00
0.00 0.00 0.00 0.00 0.00 0.00 0.00 0.00 0.00 0.00 0.00 0.00 0.00 0.00 0.00 0.00 0.00 0.00 0.00 0.00 0.00 0.00
0.00 0.00 0.00 0.00 0.00 0.00 0.00 0.00 0.00 0.00 0.00 0.00 0.00 0.00 0.00 0.00 0.00 0.00 0.00 0.00 0.00 0.00
0.00 0.00 0.00 0.00 0.00 0.00 0.00 0.00 0.00 0.00 0.00 0.00 0.00 0.00 0.00 0.00 0.00 0.00 0.00 0.00 0.00 0.00
0.00 0.00 0.00 0.00 0.00 0.00 0.00 0.00 0.00 0.00 0.00 0.00 0.00 0.00 0.00 0.00 0.00 0.00 0.00 0.00 0.00 0.00
0.00 0.00 0.00 0.00 0.00 0.00 0.00 0.00 0.00 0.00 0.00 0.00 0.00 0.00 0.00 0.00 0.00 0.00 0.00 0.00 0.00 0.00
MSLP
1014.53 1014.69 1015.15 1015.57 1015.99 1016.29 1016.79 1017.27 1017.43 1018.08 1018.40 1018.67 1019.03 1019.25 1019.47 1019.67 1019.73 1019.73 1019.79 1019.78 1019.76 1019.72
1014.04 1014.46 1014.86 1015.26 1015.63 1016.02 1016.39 1016.82 1017.24 1017.50 1018.03 1018.48 1018.84 1019.05 1019.30 1019.44 1019.53 1019.52 1019.57 1019.56 1019.43 1019.44
1013.70 1014.09 1014.65 1015.09 1015.33 1015.66 1016.16 1016.74 1017.16 1017.56 1017.99 1018.36 1018.59 1018.70 1018.97 1019.24 1019.40 1019.41 1019.35 1019.49 1019.38 1019.24
1013.39 1013.83 1014.19 1014.48 1015.01 1015.58 1015.93 1016.35 1016.81 1017.18 1017.57 1017.91 1018.17 1018.50 1018.66 1018.93 1019.08 1019.32 1019.16 1019.17 1019.24 1019.13
1013.00 1013.49 1013.81 1014.44 1014.72 1014.94 1015.51 1016.08 1016.63 1016.96 1017.21 1017.56 1017.97 1018.33 1018.51 1018.80 1018.96 1019.02 1019.05 1018.98 1019.12 1019.05
1013.00 1013.32 1013.52 1013.67 1014.37 1014.66 1015.03 1015.68 1016.16 1016.52 1016.93 1017.14 1017.58 1018.23 1018.58 1018.69 1018.95 1019.03 1018.93 1018.83 1018.91 1018.86
1013.26 1013.54 1013.67 1013.57 1013.97 1014.58 1014.69 1015.54 1015.84 1016.19 1016.73 1016.54 1017.39 1018.02 1018.34 1018.58 1018.80 1018.89 1018.93 1018.99 1019.14 1019.08
1013.12 1013.43 1013.59 1013.86 1014.23 1014.28 1014.31 1015.08 1015.48 1015.96 1015.98 1016.68 1017.25 1017.79 1018.19 1018.55 1018.68 1018.79 1018.92 1019.17 1019.30 1019.13
1013.02 1013.49 1013.69 1013.68 1014.24 1014.43 1014.48 1014.79 1014.93 1015.21 1015.92 1016.56 1017.13 1017.52 1018.00 1018.24 1018.48 1018.74 1018.68 1018.81 1019.18 1019.33
1012.92 1013.13 1013.47 1013.88 1014.03 1014.27 1014.55 1014.43 1014.50 1015.41 1015.87 1016.30 1016.75 1017.27 1017.83 1017.88 1018.28 1018.48 1018.72 1018.93 1019.23 1019.32
1013.07 1013.53 1013.82 1014.14 1014.48 1014.53 1014.52 1014.56 1014.67 1015.18 1015.50 1016.33 1016.80 1016.92 1017.50 1017.99 1018.10 1018.30 1018.61 1019.02 1019.31 1019.30
1012.63 1013.32 1013.94 1014.23 1014.30 1014.46 1014.72 1014.76 1014.90 1015.39 1015.68 1016.07 1016.64 1016.97 1017.37 1017.78 1018.16 1018.42 1018.63 1018.96 1019.08 1019.00
1012.38 1012.79 1013.06 1013.68 1013.77 1014.10 1014.28 1014.61 1015.02 1015.09 1015.47 1016.14 1016.63 1016.76 1017.19 1017.52 1017.92 1018.40 1018.67 1018.70 1018.95 1018.89
1011.84 1012.10 1012.56 1013.08 1013.46 1013.81 1014.02 1014.26 1014.73 1015.05 1015.62 1015.97 1016.22 1016.66 1017.00 1017.26 1017.80 1018.01 1018.30 1018.40 1018.54 1018.72
Thickness
5618 5615 5608 5602 5595 5591 5584 5578 5573 5565 5560 5556 5550 5546 5540 5535 5531 5528 5523 5519 5515 5511
5612 5606 5600 5593 5587 5581 5575 5568 5561 5556 5551 5545 5539 5532 5526 5522 5518 5514 5510 5506 5503 5498
5603 5596 5589 5582 5577 5570 5563 5554 5547 5541 5536 5531 5526 5520 5515 5508 5502 5498 5495 5491 5486 5482
5591 5584 5578 5573 5565 5558 5551 5544 5536 5531 5526 5521 5515 5507 5501 5495 5489 5482 5479 5477 5471 5467
5580 5572 5566 5558 5553 5549 5540 5532 5523 5519 5514 5507 5500 5492 5485 5478 5473 5468 5464 5461 5456 5453
5563 5558 5553 5548 5539 5535 5528 5520 5513 5506 5499 5494 5486 5476 5468 5462 5457 5453 5450 5448 5443 5440
5543 5538 5534 5532 5526 5518 5515 5505 5498 5492 5485 5481 5470 5461 5455 5448 5443 5439 5436 5432 5426 5422
5528 5522 5518 5513 5507 5504 5501 5492 5485 5477 5473 5464 5455 5446 5439 5433 5429 5425 5421 5416 5410 5408
5512 5505 5500 5498 5490 5485 5481 5476 5472 5466 5457 5448 5440 5431 5424 5421 5416 5411 5408 5404 5399 5396
5492 5488 5483 5477 5473 5469 5463 5461 5458 5447 5440 5433 5427 5420 5413 5408 5404 5399 5394 5393 5389 5387
5469 5463 5458 5454 5449 5447 5444 5442 5439 5433 5429 5421 5414 5409 5401 5394 5391 5389 5386 5382 5379 5377
5453 5446 5442 5439 5437 5435 5430 5427 5423 5418 5414 5407 5400 5397 5391 5385 5382 5379 5376 5372 5371 5371
5436 5434 5432 5426 5425 5421 5416 5412 5407 5406 5401 5393 5389 5387 5384 5380 5375 5369 5366 5365 5362 5362
5424 5423 5420 5416 5413 5408 5405 5402 5398 5393 5387 5383 5383 5379 5378 5373 5367 5365 5361 5359 5357 5354